Theta_e
290 291 293 293 293 296 297 297 298 298 298 298 299 300 301 300 299 294 291 293 289 282 284 286 287 287 286 286 285 285 288 286 285 285 284 283 279 280 281 284 284 282 281 278 274 271 276 285 285 284 286 284 284 287
290 291 292 292 294 295 297 297 297 297 297 297 298 299 300 300 298 296 289 293 292 285 283 288 288 288 289 290 289 285 286 286 288 285 284 282 276 271 277 279 283 282 283 282 283 281 285 283 285 286 287 286 285 286
292 291 291 292 294 297 297 296 296 297 297 297 297 298 299 300 299 295 290 290 288 283 284 284 283 287 289 288 292 286 285 288 286 287 285 280 277 276 272 271 278 283 285 283 284 284 284 285 285 286 286 286 285 286
293 294 295 294 295 297 296 296 296 296 296 296 296 297 298 299 298 295 289 290 288 283 278 280 286 285 288 288 289 290 288 287 287 287 283 280 277 280 276 279 279 282 284 281 280 283 284 285 286 287 285 284 284 284
290 290 291 293 294 295 294 295 295 295 295 295 296 296 297 299 298 293 291 291 291 284 277 279 282 284 286 288 288 289 288 286 284 283 279 280 280 279 276 278 274 280 281 282 280 286 286 286 287 286 285 284 284 284
289 289 289 289 290 291 292 292 292 293 294 294 295 296 297 298 295 289 281 289 293 287 279 275 281 280 283 285 285 284 285 284 283 280 277 278 280 279 270 268 279 282 284 285 284 285 284 284 285 284 284 283 282 282
288 288 288 288 288 288 289 290 290 291 292 293 294 294 296 297 292 282 279 285 293 289 278 273 275 281 282 282 281 282 283 281 281 278 277 277 278 278 267 267 280 281 282 282 282 283 282 282 282 283 283 282 279 277
288 288 288 288 288 287 287 287 289 289 290 292 293 294 296 296 293 287 287 295 291 283 279 271 272 278 282 277 277 279 278 278 278 276 275 276 277 271 269 275 279 280 281 281 282 282 282 281 279 277 275 274 274 275
287 287 288 288 287 287 286 286 286 288 289 291 293 293 287 286 284 285 294 293 290 283 273 268 270 268 280 278 279 279 279 273 280 272 274 275 273 269 274 278 279 279 281 281 277 273 273 275 274 273 272 271 273 273
287 287 287 287 287 287 286 287 286 287 288 290 284 276 272 281 292 294 288 283 283 281 275 268 267 270 278 275 273 277 274 274 270 273 277 267 267 278 279 278 281 281 281 277 274 275 272 272 273 272 274 272 274 273
286 287 286 286 286 286 286 287 287 287 287 274 268 275 278 291 287 284 278 278 276 274 271 267 269 275 277 271 271 274 271 269 267 270 270 264 270 277 279 278 278 280 279 277 275 276 275 274 274 274 272 271 271 269
286 286 287 286 286 287 287 287 287 279 273 276 276 284 283 281 278 275 274 275 273 268 269 270 270 274 272 275 273 272 268 269 266 273 270 263 272 269 268 269 268 268 269 269 268 269 269 271 268 269 268 268 266 267
285 285 286 286 286 287 287 288 288 288 283 273 272 270 273 275 270 270 268 269 269 265 268 271 271 276 276 273 268 267 265 267 272 271 268 269 267 262 260 261 261 261 263 263 263 262 263 263 263 262 263 260 261 263
285 285 285 286 286 287 288 288 289 287 274 268 265 264 270 269 270 268 261 265 266 264 266 274 270 271 267 269 267 266 265 266 263 262 265 264 263 257 256 256 256 255 256 257 256 257 258 258 258 256 255 253 254 258
285 284 284 282 286 287 287 288 290 279 265 264 264 262 268 265 259 254 253 260 265 261 267 267 266 269 262 266 263 263 264 260 262 263 264 260 255 255 253 252 251 252 251 251 250 251 253 253 252 252 250 249 247 250
282 280 273 284 286 286 287 283 277 272 262 258 258 261 264 261 261 258 256 267 264 264 268 271 264 265 263 262 260 259 261 260 264 261 254 252 251 250 248 247 247 247 247 247 247 247 247 247 248 249 249 246 246 245
279 270 282 288 288 287 284 273 270 262 254 252 251 250 256 261 257 253 255 261 263 267 267 265 263 265 263 258 256 256 261 261 252 253 248 247 249 248 245 245 245 245 246 246 245 246 245 244 243 247 250 249 245 245
274 277 283 284 279 275 265 266 264 257 250 248 252 248 252 255 255 256 256 260 263 267 269 269 269 263 262 259 256 256 250 248 245 246 246 245 244 244 243 244 244 244 244 243 243 243 242 244 246 248 245 245 245 245
276 278 280 280 276 266 265 262 262 254 246 245 247 248 250 251 256 257 258 259 259 259 266 267 266 262 261 254 250 247 245 244 247 247 246 244 243 244 245 246 246 246 245 244 244 246 244 243 246 247 246 244 247 246
277 278 278 275 275 265 260 255 256 254 248 250 247 251 252 251 253 255 256 256 259 264 260 256 253 250 249 249 248 248 248 247 243 246 247 246 245 246 246 244 246 244 244 244 243 246 244 246 245 245 245 246 246 248
269 270 272 264 261 258 254 253 253 251 250 250 248 251 252 254 254 253 254 253 254 246 247 244 242 243 240 239 239 238 242 242 243 243 244 244 243 243 243 243 241 241 243 242 243 246 244 244 245 244 245 246 245 246
262 271 261 264 258 256 256 255 252 252 251 248 251 253 251 251 251 251 250 252 248 247 243 244 242 239 240 241 240 238 239 238 237 239 243 242 243 244 243 243 243 243 242 243 242 244 245 245 244 245 245 246 249 248
263 262 257 257 256 254 250 253 253 252 255 253 251 252 253 253 251 251 248 246 246 244 240 239 239 237 238 238 237 239 238 239 240 239 240 240 239 241 242 243 240 242 243 245 244 245 246 249 249 250 249 249 249 248
258 249 249 248 250 246 248 250 251 250 247 247 246 247 248 245 248 251 245 241 245 239 239 239 236 240 239 239 240 239 239 236 237 241 238 239 241 243 241 244 242 242 245 246 247 249 250 250 253 251 251 251 250 250
253 244 245 244 245 246 246 249 251 252 250 249 250 248 246 245 249 248 245 244 241 240 241 239 238 238 240 238 239 240 238 239 240 240 243 240 241 243 245 246 246 247 247 247 249 251 252 250 249 251 252 252 252 252
242 238 241 236 241 243 240 245 245 246 248 251 249 250 251 252 252 248 245 246 243 242 243 243 242 242 242 242 242 243 243 241 243 244 249 249 248 248 248 249 249 249 246 246 246 244 246 247 246 246 247 248 249 248
244 240 237 235 236 237 240 239 239 242 243 246 245 247 251 252 249 249 248 247 247 244 243 242 243 245 247 249 250 251 250 249 249 250 250 250 250 249 248 247 248 249 245 242 241 240 241 241 243 243 244 243 242 243
236 234 238 238 236 233 237 235 236 238 237 238 242 245 247 247 249 250 249 248 247 246 246 247 247 248 248 248 248 247 246 245 245 247 247 248 248 247 246 246 246 251 248 243 244 243 241 242 243 244 243 244 246 242
235 232 233 238 235 237 235 237 236 234 234 232 238 240 241 242 240 240 243 242 241 242 243 244 245 243 244 245 245 244 241 239 241 242 242 244 245 246 241 239 239 240 240 238 246 251 247 245 245 245 245 245 246 242
235 229 236 235 239 240 237 233 233 229 228 231 229 234 236 237 238 234 235 236 238 240 238 237 237 235 239 236 240 241 237 238 242 243 242 242 244 241 238 240 242 242 240 237 242 243 247 245 244 241 242 243 242 242
231 230 235 233 237 234 231 226 225 226 227 227 225 230 234 234 237 238 236 235 233 231 234 238 237 233 234 235 235 237 244 238 238 241 241 242 243 242 243 244 244 241 238 239 240 241 242 242 240 241 242 242 243 244
232 231 235 239 238 231 227 228 228 229 228 230 232 226 233 235 239 245 241 235 235 240 242 238 237 244 241 241 238 240 244 245 243 243 242 243 244 244 244 244 242 240 239 241 241 241 241 240 241 242 242 242 243 243
231 228 229 232 236 238 234 234 236 238 234 234 235 231 230 235 243 247 243 241 246 245 245 245 243 242 242 242 243 243 244 243 243 248 250 250 249 248 247 246 244 243 242 242 243 243 242 242 242 242 242 243 244 244
Wind_Speed
3 3 2 3 3 10 12 13 12 12 12 11 11 12 11 12 8 4 1 6 3 5 3 5 4 5 4 4 10 7 6 2 3 5 4 4 3 6 4 5 8 11 10 6 3 2 14 7 4 10 5 2 3 3
2 1 1 2 9 9 15 14 13 12 11 11 12 11 9 10 10 4 3 2 4 8 3 3 7 5 5 2 8 1 2 6 5 4 3 4 3 2 6 6 2 5 6 7 11 8 4 5 1 1 2 5 3 5
7 3 2 4 7 15 18 14 13 12 12 11 11 11 9 9 11 6 3 2 4 4 4 3 5 6 8 6 3 6 1 5 4 2 5 4 5 5 5 5 4 4 3 3 4 4 4 5 1 2 3 4 4 4
23 23 15 9 12 20 20 17 15 14 12 11 11 11 9 10 10 7 4 3 4 4 5 2 3 5 9 6 4 4 8 5 5 3 3 2 4 2 3 3 3 4 9 6 2 3 1 4 4 6 5 5 4 3
27 24 27 27 24 24 23 20 18 15 12 11 11 11 9 11 14 9 4 3 3 5 5 2 1 7 7 6 10 8 9 7 3 3 3 2 2 3 1 2 2 5 6 6 5 6 3 2 7 5 6 5 6 5
21 21 23 23 22 22 21 20 17 15 13 12 10 10 8 11 7 4 4 4 3 3 6 4 2 6 7 7 12 10 5 4 4 4 2 1 1 3 4 3 5 3 1 1 4 4 3 5 6 4 4 3 2 5
15 16 17 17 17 17 16 15 16 15 13 12 11 9 7 13 5 3 4 3 1 3 5 4 3 4 4 5 4 4 5 3 4 3 3 2 1 3 3 3 3 4 4 4 4 6 4 1 3 4 4 4 3 2
12 14 14 13 12 10 10 11 10 10 12 12 10 8 10 13 7 4 4 6 4 6 5 5 1 1 3 3 3 2 3 4 5 2 2 3 2 3 2 7 4 6 6 4 4 5 4 5 4 3 3 3 2 3
10 11 10 10 8 5 4 3 5 6 8 10 10 9 5 4 2 1 7 11 4 4 4 4 5 4 1 3 2 3 2 3 1 3 1 4 1 5 7 7 6 7 7 8 4 5 4 1 1 1 2 1 3 5
8 7 8 7 4 4 4 5 3 3 5 9 6 5 3 2 5 12 4 2 3 3 3 3 1 3 3 1 2 3 2 3 3 3 2 3 5 4 5 6 6 6 6 7 5 3 1 4 6 5 8 4 5 4
12 11 9 6 4 1 2 6 9 6 10 4 3 1 4 5 1 3 4 3 3 2 1 3 3 6 1 4 3 1 2 1 3 4 5 2 5 2 10 10 4 3 3 5 3 5 5 2 1 2 3 5 4 4
10 10 9 6 4 3 3 5 9 5 4 5 4 1 1 1 1 3 3 4 4 7 2 6 4 4 1 3 5 1 4 2 5 3 4 3 4 3 5 5 6 7 5 7 6 6 5 6 5 2 2 3 2 4
12 10 8 5 3 5 4 6 10 12 7 5 5 4 3 2 4 5 4 1 2 3 6 5 4 4 3 3 4 4 5 4 3 3 4 6 2 1 3 3 4 8 8 6 6 6 6 4 6 6 5 4 6 6
13 8 5 2 4 6 8 9 12 11 6 4 4 3 2 3 2 1 3 3 3 2 4 8 5 4 2 4 3 6 2 4 3 2 8 3 4 3 2 3 3 5 7 7 7 7 7 7 6 4 5 5 7 7
11 4 4 5 12 11 4 7 17 5 5 3 5 2 1 1 1 3 2 3 3 1 3 4 5 4 3 6 3 4 4 2 6 7 4 2 3 3 3 3 4 5 5 5 4 5 6 7 6 6 5 5 3 5
10 6 5 18 14 6 3 14 7 3 5 5 7 3 1 2 3 3 3 1 3 3 1 4 4 5 1 5 5 5 8 8 6 5 1 1 2 2 1 2 2 2 2 2 3 2 3 4 4 5 7 4 5 3
9 2 18 19 12 15 16 7 4 8 5 5 2 2 2 3 0 2 3 3 5 2 3 4 5 5 3 4 1 5 7 5 2 1 1 2 2 1 2 3 3 3 4 4 3 4 4 4 3 3 5 4 4 4
1 6 17 8 6 10 6 7 6 6 6 3 3 3 2 2 3 1 3 3 3 2 1 2 5 3 5 6 4 4 1 1 0 0 0 1 1 1 2 1 3 3 2 3 2 3 3 4 3 2 4 4 5 3
5 11 19 14 8 7 5 6 5 5 1 2 2 1 1 1 2 4 4 4 1 1 1 2 5 2 2 2 1 2 2 1 1 2 2 2 1 1 2 2 1 2 3 3 3 2 3 3 4 4 3 2 2 3
7 21 21 19 10 5 7 4 3 6 3 2 2 3 1 0 3 3 4 5 4 3 7 6 3 0 1 1 1 1 0 1 1 2 4 3 2 6 6 3 3 4 4 4 3 3 3 4 2 2 2 2 2 4
9 9 14 8 6 9 7 3 5 2 1 3 3 2 1 2 3 5 5 6 5 4 3 1 2 3 2 3 1 1 3 0 1 3 2 3 2 2 3 3 2 2 1 2 3 4 3 3 3 3 3 3 3 3
3 13 5 7 7 5 6 4 3 1 4 2 2 2 4 4 4 5 5 6 5 2 0 1 2 2 4 3 2 3 3 2 2 2 3 3 3 3 3 2 3 3 3 3 2 3 4 4 3 3 2 4 3 2
8 7 7 10 8 9 3 2 4 6 4 3 3 4 3 2 2 3 5 2 1 1 1 2 3 3 4 4 3 4 3 2 2 3 3 3 3 3 3 4 2 2 3 4 2 2 3 4 4 3 3 3 2 2
13 11 9 7 8 2 4 6 3 4 4 5 4 3 3 3 5 4 4 2 3 2 2 3 1 4 2 2 2 3 3 2 2 4 2 1 3 4 3 4 3 4 3 3 3 3 3 3 4 3 3 3 3 3
12 14 9 10 6 8 9 6 7 5 4 4 4 5 4 3 4 4 1 4 3 2 2 3 1 1 2 3 3 3 2 2 1 3 4 3 2 3 3 2 2 1 1 2 2 3 4 2 3 3 3 3 4 4
13 7 7 3 5 5 3 4 6 5 4 4 3 3 2 2 4 1 3 2 2 2 2 1 1 3 3 3 2 2 3 3 1 2 3 2 1 2 3 3 3 2 1 2 2 3 4 4 3 5 5 6 6 4
9 6 4 0 2 1 2 1 0 3 5 4 4 6 3 4 2 3 2 2 2 2 3 2 2 2 4 5 3 3 1 2 5 6 5 4 5 4 4 4 5 3 0 1 2 3 3 4 4 4 5 4 4 4
3 3 3 6 3 1 3 3 4 3 3 3 2 3 2 1 2 2 2 1 1 2 3 4 4 4 5 5 4 4 5 2 4 7 6 5 4 3 4 4 5 10 6 3 4 4 4 4 5 5 5 6 6 3
3 3 0 5 3 4 2 2 2 3 1 2 1 2 4 3 3 2 3 1 2 2 3 3 3 2 4 4 5 4 3 2 1 3 2 3 3 3 2 2 3 3 3 3 7 7 7 7 8 7 9 7 6 3
4 1 3 2 3 3 3 3 3 2 2 2 1 4 4 5 5 1 2 2 1 3 3 2 2 1 4 2 4 6 3 5 6 5 4 4 5 3 3 4 5 4 3 2 4 5 8 5 6 4 4 4 3 4
2 2 2 1 2 3 3 2 1 1 1 1 0 3 5 6 7 4 3 3 1 1 2 3 3 4 4 3 4 3 5 3 6 8 7 5 6 6 6 6 5 4 3 4 4 5 6 4 4 6 7 9 9 8
4 2 1 3 4 3 3 3 1 1 2 2 3 1 4 4 4 5 3 4 2 2 5 3 2 5 5 4 3 4 8 7 5 7 9 7 8 8 7 6 5 4 5 6 6 6 7 9 8 8 9 11 12 12
2 1 1 2 4 5 4 4 3 4 1 2 3 3 3 3 5 5 2 5 5 4 5 5 5 4 6 7 7 6 8 7 8 11 12 14 14 13 8 7 6 6 7 7 7 7 10 11 11 12 12 13 14 13
Wind_Direction
339 311 99 52 159 280 164 131 127 116 105 92 90 83 85 66 69 85 40 1 70 84 54 34 46 119 108 143 153 160 108 29 54 131 144 154 148 200 160 164 178 167 158 198 110 107 252 171 74 168 206 51 137 99
316 132 74 310 179 274 139 130 122 122 104 93 86 85 87 76 51 75 73 343 29 73 81 39 83 50 24 56 121 72 78 121 146 113 159 124 159 126 160 192 270 199 187 179 181 205 213 201 178 92 119 134 158 112
107 86 228 203 175 160 130 124 118 109 101 87 78 72 81 88 59 79 98 10 60 92 68 41 23 350 29 2 333 113 98 144 145 163 153 153 159 133 165 230 103 252 189 178 94 202 204 163 118 138 112 114 139 119
69 52 74 136 163 134 114 109 101 98 95 89 78 69 75 107 71 63 64 338 67 99 94 2 327 24 324 349 87 103 124 85 96 56 75 107 128 184 194 163 149 195 139 165 295 305 75 198 198 168 146 131 129 102
60 56 61 63 70 90 90 87 82 76 79 80 73 69 69 119 92 77 67 33 57 111 123 69 283 357 346 19 65 66 103 107 112 97 103 169 112 112 338 73 274 191 173 166 216 185 157 173 176 171 173 190 186 163
50 49 57 62 60 64 72 77 75 71 63 58 65 67 89 112 68 55 36 350 12 66 95 81 332 359 350 38 52 47 44 62 78 104 125 104 268 101 107 187 264 204 181 222 161 133 90 105 101 135 161 184 174 198
41 42 44 46 50 55 57 61 63 67 60 56 50 58 86 106 49 69 172 245 166 68 85 90 47 342 343 20 26 23 26 57 79 95 64 119 55 80 93 171 253 166 135 92 112 113 67 46 115 137 108 94 113 98
28 22 19 19 21 28 34 46 52 56 57 54 50 59 95 95 57 14 336 138 60 84 73 104 76 101 14 49 48 348 43 24 16 118 31 98 22 68 241 243 257 150 141 137 159 57 103 115 74 70 59 73 50 270
15 14 10 2 355 345 349 348 51 57 57 50 60 68 53 43 57 223 91 66 51 92 109 92 133 180 148 86 98 35 76 61 337 83 255 85 248 219 213 195 174 181 165 172 97 54 37 118 159 154 118 78 198 255
43 30 25 25 7 323 274 228 163 113 69 59 42 44 7 240 161 119 46 71 51 7 58 97 357 132 117 93 65 103 38 129 139 238 92 102 246 211 181 206 192 196 215 119 92 322 308 283 221 206 214 207 207 226
4 356 347 342 5 355 258 216 178 157 49 44 62 190 242 287 146 213 159 149 108 91 86 162 152 127 299 105 126 346 156 110 108 241 130 258 272 229 172 186 206 231 232 207 41 51 55 145 166 220 269 243 230 239
346 333 320 308 308 274 235 213 192 86 164 179 158 42 323 138 223 203 174 122 141 199 155 130 170 136 175 103 99 183 124 76 195 156 108 252 240 12 23 26 17 13 16 70 48 70 45 57 20 5 335 340 340 296
340 324 321 303 306 284 202 185 193 137 101 37 46 34 81 259 210 193 146 50 155 189 175 160 111 125 113 70 69 103 99 191 136 139 211 230 220 38 348 348 29 16 29 50 45 35 31 21 29 32 349 8 338 342
331 321 359 315 326 343 252 192 194 152 82 93 99 331 227 230 290 314 179 164 260 100 150 134 109 123 147 80 138 104 217 83 76 158 229 240 187 139 38 17 78 20 28 39 25 13 25 20 8 19 34 0 349 343
351 338 84 353 333 335 311 185 162 86 84 121 91 193 257 319 264 230 234 316 293 277 94 74 60 83 19 98 52 103 65 185 196 220 231 219 122 106 56 50 39 31 15 23 0 3 355 356 360 331 344 339 349 323
6 40 345 323 297 245 200 81 48 78 55 62 36 79 314 77 329 13 326 46 355 349 77 53 91 65 41 124 93 198 125 205 230 212 229 180 102 77 86 24 1 335 327 325 327 320 314 348 333 308 312 347 332 331
45 358 315 315 185 105 76 77 57 47 76 49 5 2 344 71 192 283 306 336 330 317 103 107 95 178 99 67 49 197 190 209 182 182 298 26 82 50 351 343 346 355 3 354 341 350 321 304 307 346 354 309 317 319
63 314 360 88 61 66 43 32 77 65 56 342 70 311 354 16 311 311 303 338 337 46 34 135 131 110 149 151 255 233 92 334 45 155 303 328 353 302 190 274 289 273 275 287 266 284 294 338 346 318 295 290 310 331
22 16 26 28 66 86 74 36 22 92 197 245 268 318 80 320 307 302 312 323 341 3 328 38 77 116 152 42 15 329 329 335 208 298 275 253 223 26 292 262 280 3 351 342 337 317 282 264 255 282 285 319 301 297
28 16 16 30 45 76 75 14 33 79 74 274 43 10 54 174 298 323 341 5 351 359 42 33 50 123 75 359 321 317 315 6 56 9 303 308 342 11 353 340 315 321 326 327 318 307 331 322 299 293 293 256 283 289
33 351 20 51 53 60 79 6 48 100 143 72 283 21 339 4 26 15 357 334 60 37 72 264 264 278 274 257 256 286 306 45 205 185 222 304 306 312 305 313 317 337 322 318 306 306 323 259 267 290 296 296 283 262
328 7 48 24 71 57 82 14 100 162 71 194 44 20 31 25 1 9 308 43 50 3 260 293 266 283 333 328 287 216 243 236 244 270 278 282 309 336 328 304 1 315 304 264 236 263 278 270 274 285 289 288 314 312
16 28 46 15 63 40 312 17 72 2 60 3 17 53 32 20 336 327 67 47 290 263 248 251 259 232 225 284 303 278 215 203 296 286 283 263 264 274 285 281 210 233 301 300 221 270 273 286 296 299 294 316 318 312
31 46 36 41 23 24 337 18 23 34 43 29 43 40 3 309 319 57 77 278 259 325 335 277 299 325 327 360 359 287 287 148 302 298 242 159 316 294 228 258 246 232 218 258 272 279 284 286 308 314 300 285 275 272
63 1 27 5 1 21 25 10 359 24 46 341 37 11 339 351 55 50 67 274 309 283 279 312 352 184 183 271 295 290 253 155 265 295 278 182 245 310 323 306 267 242 324 316 316 330 320 298 287 281 292 297 305 303
66 331 46 314 340 42 334 33 14 1 344 23 25 324 312 346 57 4 261 257 259 249 275 298 279 320 323 193 254 305 268 193 180 257 257 178 233 279 295 315 328 269 32 38 324 311 314 323 319 321 307 303 301 305
52 342 335 257 138 179 14 331 322 57 41 19 349 338 339 60 4 273 270 215 226 230 215 229 214 224 262 287 282 282 254 223 235 269 301 276 256 234 225 239 258 253 173 255 234 217 254 287 291 284 285 286 250 241
127 19 17 327 5 21 113 38 39 22 288 284 279 10 89 152 237 269 246 312 325 334 303 274 241 239 258 269 279 290 293 293 295 274 263 256 244 226 222 238 259 278 278 234 234 222 217 237 263 276 273 272 282 252
33 323 58 350 353 39 69 111 238 250 219 104 134 279 264 257 255 255 278 279 1 336 302 316 313 1 293 272 260 249 226 169 72 325 305 285 321 293 205 236 251 257 251 260 275 260 234 233 239 242 247 246 252 252
325 55 25 20 62 356 259 166 234 253 228 209 257 302 286 272 254 248 295 329 332 263 245 246 272 71 273 309 301 306 243 191 203 183 199 238 230 245 261 268 272 264 248 253 272 287 301 320 315 325 317 295 280 274
310 20 29 82 239 249 235 265 329 353 359 298 278 189 258 303 305 243 206 215 205 48 343 299 293 206 206 225 220 293 307 248 221 237 244 260 270 269 267 265 257 245 231 235 245 249 262 267 250 266 273 269 266 259
6 80 66 332 305 285 26 39 317 355 320 7 284 295 311 346 292 280 200 130 108 279 236 191 233 272 212 233 236 244 246 270 246 239 241 247 254 252 252 251 240 222 229 239 237 241 238 244 257 255 261 264 265 264
345 183 199 325 332 349 341 360 14 341 348 316 274 209 219 195 247 280 263 212 218 219 245 241 239 252 248 248 246 255 238 244 253 260 261 256 255 257 254 243 226 219 228 236 238 235 240 242 250 252 253 255 261 263